Regional Weather Roundup
Issued by NWS State College, PA

Home | Current Version | Previous Version | Graphics & Text | Print | Product List | Glossary Off
Versions: 1 2 3 4 5 6 7 8 9 10 11 12 13 14 15 16 17 18 19 20 21 22 23 24 25 26 27 28 29 30 31 32 33 34 35 36 37 38 39 40 41 42 43 44 45 46 47 48 49 50

000
ASUS41 KCTP 210010
RWRCTP

REGIONAL WEATHER ROUNDUP
NATIONAL WEATHER SERVICE STATE COLLEGE PA
800 PM EDT WED AUG 20 2014

Note: "fair" indicates few or no clouds below 12,000 feet with no
significant weather and/or obstructions to visibility.

* = STATION THAT DOES NOT REPORT PRECIPITATION /E.G. RAIN...SNOW...ETC/
    THUNDER OR FOG.

PAZ002>004-007>009-013>016-020>023-029>032-210100-
WESTERN PENNSYLVANIA

CITY           SKY/WX    TMP DP  RH WIND       PRES   REMARKS
ERIE           PTCLDY    73  66  78 S3        29.90F
MEADVILLE      MOCLDY    70  64  81 CALM      29.95F
FRANKLIN*      MOCLDY    68  64  88 CALM      29.97F
NEW CASTLE     NOT AVBL
BEAVER COUNTY  CLEAR     73  66  78 S5        29.95S
BUTLER*        MOCLDY    75  66  73 S5        29.96F
PITTSBURGH INT TSTM      71  67  87 S8G22     29.95S
PITTSBURGH     CLOUDY    77  66  68 S5        29.96R
INDIANA*       CLEAR     73  68  83 CALM      30.00F
LATROBE        MOCLDY    75  72  88 SW6       29.98S
WASHINGTON CO* CLOUDY    72  64  78 NW6G20    29.98R
$$

PAZ004>006-010>012-017>019-024>028-033>037-041-042-045-046-049>053-210100-
CENTRAL PENNSYLVANIA

CITY           SKY/WX    TMP DP  RH WIND       PRES   REMARKS
BRADFORD       MOCLDY    67  62  84 CALM      29.99S
DUBOIS         CLEAR     71  66  84 CALM      29.98S
CLEARFIELD     CLEAR     73  66  78 CALM      29.98S
JOHNSTOWN      PTCLDY    71  63  75 SW5       30.03R
ALTOONA        PTCLDY    72  68  87 CALM      30.00R
STATE COLLEGE  PTCLDY    72  68  88 S6        29.98S
WILLIAMSPORT   MOCLDY    73  66  78 E7        29.95S
SELINSGROVE    PTCLDY    71  68  90 CALM      29.98S FOG
FT INDIANTOWN  CLOUDY    71  71 100 CALM      29.99S
CAPITAL CITY   MOCLDY    75  68  78 CALM      29.98R
HARRISBURG     MOCLDY    76  68  76 S5        29.97R
YORK           MOCLDY    74  67  78 CALM      29.98S
$$

PAZ038>040-043-044-047-048-054-055-060>062-067>071-210100-
EASTERN PENNSYLVANIA

CITY           SKY/WX    TMP DP  RH WIND       PRES   REMARKS
SCRANTON       CLOUDY    74  66  76 CALM      29.99S
MOUNT POCONO   LGT RAIN  70  64  81 SW5       30.05R
ALLENTOWN      CLOUDY    79  63  57 SW6       29.98S
QUAKERTOWN*    CLOUDY    77  66  69 CALM      30.00S
READING        CLOUDY    78  65  63 S3        29.97S
LANCASTER      CLOUDY    76  67  73 S3        29.98S
COATESVILLE    CLOUDY    73  66  78 SE3       30.01S
POTTSTOWN      CLOUDY    78  64  61 S5        30.00S
BLUE BELL      MOCLDY    79  66  65 S6        29.99R
DOYLESTOWN     CLOUDY    76  62  62 SE7       29.99R
WILLOW GROVE   NOT AVBL
NORTH PHILA    LGT RAIN  75  66  73 SE3       30.01R
PHILADELPHIA   MOCLDY    78  65  63 S9        30.00R
$$


USA.gov is the U.S. government's official web portal to all federal, state and local government web resources and services.